Meteo pe oră la Aalen

Astăzi, 13 Iunie, Duminică

Timp Temperatura Precipitaţii Vânt Presiune Umiditate
00:00 +15°C° 0 mm 2 m/s 725 mmHg 90%
01:00 +14°C° 0 mm 2 m/s 725 mmHg 90%
02:00 +13°C° 0 mm 1 m/s 726 mmHg 91%
03:00 +13°C° 0 mm 1 m/s 726 mmHg 92%
04:00 +12°C° 0 mm 1 m/s 726 mmHg 94%
05:00 +13°C° 0 mm 1 m/s 726 mmHg 90%
06:00 +14°C° 0 mm 2 m/s 727 mmHg 85%
07:00 +15°C° 0 mm 2 m/s 727 mmHg 81%
08:00 +16°C° 0 mm 2 m/s 727 mmHg 76%
09:00 +17°C° 0 mm 2 m/s 728 mmHg 71%
10:00 +18°C° 0 mm 2 m/s 728 mmHg 66%
11:00 +18°C° 0 mm 3 m/s 728 mmHg 62%
12:00 +19°C° 0 mm 3 m/s 728 mmHg 57%
13:00 +20°C° 0 mm 3 m/s 728 mmHg 53%
14:00 +20°C° 0 mm 3 m/s 728 mmHg 53%
15:00 +20°C° 0 mm 3 m/s 728 mmHg 53%
16:00 +20°C° 0 mm 3 m/s 728 mmHg 54%
17:00 +19°C° 0 mm 3 m/s 728 mmHg 61%
18:00 +18°C° 0 mm 2 m/s 727 mmHg 68%
19:00 +17°C° 0 mm 2 m/s 727 mmHg 76%
20:00 +15°C° 0 mm 2 m/s 727 mmHg 78%
21:00 +14°C° 0 mm 1 m/s 727 mmHg 81%
22:00 +12°C° 0 mm 1 m/s 727 mmHg 83%
23:00 +11°C° 0 mm 1 m/s 727 mmHg 84%

Mâine, 14 Iunie, Luni

Timp Temperatura Precipitaţii Vânt Presiune Umiditate
00:00 +11°C° 0 mm 1 m/s 727 mmHg 86%
01:00 +10°C° 0 mm 1 m/s 727 mmHg 87%
02:00 +10°C° 0 mm 1 m/s 726 mmHg 88%
03:00 +10°C° 0 mm 1 m/s 726 mmHg 89%
04:00 +9°C° 0 mm 1 m/s 726 mmHg 89%
05:00 +10°C° 0 mm 2 m/s 726 mmHg 84%
06:00 +12°C° 0 mm 2 m/s 726 mmHg 79%
07:00 +13°C° 0 mm 2 m/s 726 mmHg 74%
08:00 +15°C° 0 mm 2 m/s 726 mmHg 69%
09:00 +17°C° 0 mm 2 m/s 726 mmHg 64%
10:00 +18°C° 0 mm 3 m/s 726 mmHg 59%
11:00 +19°C° 0 mm 3 m/s 725 mmHg 57%
12:00 +20°C° 0 mm 2 m/s 725 mmHg 54%
13:00 +23°C° 0 mm 2 m/s 725 mmHg 51%
14:00 +23°C° 0 mm 2 m/s 724 mmHg 52%
15:00 +23°C° 0 mm 2 m/s 724 mmHg 52%
16:00 +24°C° 0 mm 2 m/s 724 mmHg 52%
17:00 +23°C° 0 mm 1 m/s 724 mmHg 60%
18:00 +22°C° 0 mm 1 m/s 723 mmHg 67%
19:00 +21°C° 0 mm 1 m/s 723 mmHg 75%
20:00 +19°C° 0 mm 1 m/s 723 mmHg 77%
21:00 +16°C° 0 mm 1 m/s 723 mmHg 80%
22:00 +14°C° 0 mm 1 m/s 723 mmHg 82%
23:00 +14°C° 0 mm 1 m/s 723 mmHg 82%

Poimâine, 15 Iunie, Marţi

Timp Temperatura Precipitaţii Vânt Presiune Umiditate
00:00 +12°C° 0 mm 0 m/s 723 mmHg 83%
01:00 +12°C° 0 mm 0 m/s 723 mmHg 83%
02:00 +13°C° 0 mm 1 m/s 723 mmHg 83%
03:00 +12°C° 0 mm 1 m/s 723 mmHg 84%
04:00 +12°C° 0 mm 1 m/s 722 mmHg 84%
05:00 +14°C° 0 mm 1 m/s 723 mmHg 81%
06:00 +15°C° 0 mm 1 m/s 723 mmHg 77%
07:00 +18°C° 0 mm 1 m/s 723 mmHg 73%
08:00 +19°C° 0 mm 1 m/s 723 mmHg 68%
09:00 +21°C° 0 mm 1 m/s 723 mmHg 62%
10:00 +23°C° 0 mm 1 m/s 723 mmHg 57%
11:00 +24°C° 0 mm 1 m/s 723 mmHg 55%
12:00 +25°C° 0 mm 1 m/s 723 mmHg 53%
13:00 +25°C° 0 mm 1 m/s 723 mmHg 51%
14:00 +25°C° 0 mm 1 m/s 723 mmHg 51%
15:00 +26°C° 0 mm 1 m/s 723 mmHg 52%
16:00 +26°C° 0 mm 1 m/s 723 mmHg 52%
17:00 +25°C° 0 mm 1 m/s 723 mmHg 60%
18:00 +24°C° 0 mm 1 m/s 723 mmHg 67%
19:00 +20°C° 0 mm 0 m/s 722 mmHg 75%
20:00 +19°C° 0 mm 0 m/s 722 mmHg 77%
21:00 +17°C° 0 mm 0 m/s 722 mmHg 80%
22:00 +16°C° 0 mm 0 m/s 722 mmHg 82%
23:00 +15°C° 0 mm 0 m/s 722 mmHg 83%

16 Iunie, Miercuri

Timp Temperatura Precipitaţii Vânt Presiune Umiditate
00:00 +15°C° 0 mm 0 m/s 722 mmHg 83%
01:00 +15°C° 0 mm 1 m/s 722 mmHg 84%
02:00 +15°C° 0 mm 1 m/s 722 mmHg 85%
03:00 +15°C° 0 mm 1 m/s 721 mmHg 85%
04:00 +14°C° 0 mm 1 m/s 721 mmHg 86%
05:00 +16°C° 0 mm 1 m/s 721 mmHg 83%
06:00 +18°C° 0 mm 1 m/s 721 mmHg 81%
07:00 +19°C° 0 mm 1 m/s 721 mmHg 78%
08:00 +21°C° 0 mm 1 m/s 722 mmHg 73%
09:00 +21°C° 0 mm 2 m/s 722 mmHg 69%
10:00 +24°C° 0 mm 2 m/s 722 mmHg 64%
11:00 +25°C° 0 mm 2 m/s 721 mmHg 61%
12:00 +25°C° 0 mm 2 m/s 721 mmHg 57%
13:00 +26°C° 0 mm 3 m/s 721 mmHg 53%
14:00 +27°C° 0 mm 3 m/s 721 mmHg 54%
15:00 +27°C° 0 mm 3 m/s 721 mmHg 55%
16:00 +27°C° 0 mm 3 m/s 721 mmHg 55%
17:00 +26°C° 0 mm 2 m/s 720 mmHg 62%
18:00 +25°C° 0 mm 2 m/s 720 mmHg 69%
19:00 +24°C° 0 mm 1 m/s 720 mmHg 76%
20:00 +22°C° 0 mm 1 m/s 720 mmHg 79%
21:00 +21°C° 0 mm 1 m/s 720 mmHg 81%
22:00 +19°C° 0 mm 1 m/s 720 mmHg 83%
23:00 +18°C° 0 mm 1 m/s 719 mmHg 85%

17 Iunie, Joi

Timp Temperatura Precipitaţii Vânt Presiune Umiditate
00:00 +18°C° 0 mm 1 m/s 719 mmHg 87%
01:00 +16°C° 0 mm 1 m/s 719 mmHg 89%
02:00 +16°C° 0 mm 1 m/s 719 mmHg 90%
03:00 +15°C° 0 mm 1 m/s 719 mmHg 91%
04:00 +15°C° 0 mm 1 m/s 719 mmHg 92%
05:00 +16°C° 0 mm 2 m/s 719 mmHg 88%
06:00 +17°C° 0 mm 2 m/s 719 mmHg 84%
07:00 +19°C° 0 mm 2 m/s 720 mmHg 81%
08:00 +21°C° 0 mm 2 m/s 720 mmHg 75%
09:00 +23°C° 0 mm 2 m/s 720 mmHg 69%
10:00 +25°C° 0 mm 1 m/s 720 mmHg 64%
11:00 +26°C° 0 mm 1 m/s 720 mmHg 60%
12:00 +27°C° 0 mm 1 m/s 720 mmHg 56%
13:00 +29°C° 0 mm 1 m/s 720 mmHg 52%
14:00 +29°C° 0 mm 1 m/s 720 mmHg 52%
15:00 +29°C° 0 mm 1 m/s 719 mmHg 52%
16:00 +29°C° 0 mm 2 m/s 719 mmHg 52%
17:00 +28°C° 0 mm 2 m/s 719 mmHg 59%
18:00 +26°C° 0 mm 1 m/s 719 mmHg 67%
19:00 +25°C° 0 mm 1 m/s 718 mmHg 74%
20:00 +23°C° 0 mm 1 m/s 718 mmHg 76%
21:00 +22°C° 0 mm 1 m/s 718 mmHg 78%
22:00 +20°C° 0 mm 1 m/s 719 mmHg 79%
23:00 +20°C° 0 mm 1 m/s 718 mmHg 80%

18 Iunie, Vineri

Timp Temperatura Precipitaţii Vânt Presiune Umiditate
00:00 +19°C° 0 mm 1 m/s 718 mmHg 81%
01:00 +19°C° 0 mm 1 m/s 718 mmHg 83%
02:00 +19°C° 0 mm 1 m/s 718 mmHg 84%
03:00 +18°C° 0 mm 1 m/s 718 mmHg 86%
04:00 +18°C° 0 mm 1 m/s 718 mmHg 88%
05:00 +19°C° 0 mm 1 m/s 719 mmHg 86%
06:00 +20°C° 0 mm 1 m/s 719 mmHg 84%
07:00 +21°C° 0 mm 1 m/s 720 mmHg 82%
08:00 +23°C° 0 mm 1 m/s 720 mmHg 78%
09:00 +24°C° 0 mm 1 m/s 720 mmHg 74%
10:00 +26°C° 0 mm 1 m/s 720 mmHg 70%
11:00 +26°C° 0.1 mm 1 m/s 720 mmHg 67%
12:00 +27°C° 0.1 mm 1 m/s 720 mmHg 63%
13:00 +28°C° 0.1 mm 1 m/s 720 mmHg 60%
14:00 +28°C° 0.1 mm 1 m/s 720 mmHg 60%
15:00 +28°C° 0.1 mm 1 m/s 720 mmHg 60%
16:00 +28°C° 0.1 mm 1 m/s 720 mmHg 61%
17:00 +27°C° 0.1 mm 1 m/s 720 mmHg 67%
18:00 +26°C° 0.1 mm 1 m/s 720 mmHg 74%
19:00 +25°C° 0.1 mm 1 m/s 720 mmHg 80%
20:00 +23°C° 0.3 mm 1 m/s 721 mmHg 83%
21:00 +22°C° 0.3 mm 1 m/s 721 mmHg 87%
22:00 +20°C° 0.3 mm 1 m/s 721 mmHg 90%
23:00 +20°C° 0.3 mm 1 m/s 721 mmHg 90%
Arată mai mult

Formular de consimțământ

Meteoprog și furnizorii noștri de servicii pot stoca și accesa date personale, precum cookies, identificatori de dispozitiv sau alte tehnologii similare pe dispozitivul dumneavoastră și procesa astfel de date pentru a personaliza conținutul și reclamele, dar și pentru a oferi caracteristici de social media și pentru a analiza traficul.

  • Stocarea și/sau accesarea informațiilor pe dispozitivul dumneavoastră

    Cookies, identificatori de dispozitiv sau alte informații pot fi stocate sau accesate pe dispozitiv în scopurile indicate mai sus.

  • Reclame și conținut personalizat, evaluarea reclamelor și a conținutului, informații despre audiențe și dezvoltarea produselor

    Reclamele și conținutul pot fi personalizate pe baza unui profil. Pot fi adăugate date suplimentare pentru a personaliza mai bine reclamele și conținutul. Performanța reclamelor și conținutului poate fi măsurată. Pot fi obținute informații despre utilizatorii care au văzut reclamele și conținutul. Aceste date pot fi utilizate pentru a dezvolta sau îmbunătăți experiența utilizatorilor, sistemele și software-ul.

Dând clic pe ‘Sunt de acord’, permiteți utilizarea cookie-urilor menționate, a identificatorilor de dispozitiv, balizelor web sau altor tehnologii similare. Setările pot fi modificate din browser-ul dispozitivului dumneavoastră.

În anumite scopuri, interesele legitime pot prima asupra consimțământului. Puteți citi mai multe informații în acest sens în Politica privind Confidențialitatea Datelor și Cookie.